Theta_e
333 332 332 332 333 333 333 333 332 332 331 331 331 331 331 330 330 329 329 329 330 330 329 330 330 330 330 330 330 330 331 330 331 331 330 329 329 328 328 328 328 328 328 329 329 328 327 327 326 326 326 326 326 326 326 326 325 325 324 323 323 323 324
332 332 331 332 332 332 332 332 331 331 330 330 330 329 329 328 328 328 328 327 327 328 328 328 329 328 328 328 328 329 329 329 330 331 331 330 330 329 328 329 329 328 328 328 328 328 326 326 326 326 326 326 325 324 324 323 323 323 323 323 323 323 324
331 331 331 332 332 332 331 330 330 330 329 328 328 328 327 327 326 326 326 325 325 325 326 326 327 326 326 326 326 328 328 329 329 330 330 331 331 330 329 329 329 329 328 328 327 327 327 326 326 326 326 326 325 323 323 322 323 323 324 324 325 325 324
331 332 332 332 332 331 330 329 329 328 327 327 326 326 326 325 325 325 324 324 324 324 324 324 324 325 326 326 326 326 327 328 328 328 329 330 330 330 329 329 329 329 329 329 328 327 327 326 326 326 326 325 324 322 321 321 322 322 322 323 324 325 324
331 332 332 331 331 330 329 328 327 327 326 326 325 325 325 324 325 325 324 324 324 324 324 323 323 324 325 326 326 326 326 327 327 328 328 329 329 329 329 329 329 329 329 329 328 328 328 326 326 326 325 324 323 322 321 321 321 321 321 321 321 323 323
330 330 330 329 329 328 327 327 326 326 325 324 324 324 324 324 324 324 324 324 324 324 323 323 324 324 325 324 325 326 326 326 327 327 328 328 329 329 329 329 328 328 328 328 328 328 327 326 325 325 324 323 322 321 321 321 320 320 319 320 320 321 321
327 327 326 326 326 326 325 325 325 324 324 324 323 323 323 323 323 323 324 323 323 323 323 323 323 323 322 321 321 323 325 325 326 326 326 326 327 327 328 328 328 328 327 327 327 327 326 325 325 324 323 322 321 321 320 319 319 319 318 318 318 319 319
324 324 324 324 325 325 324 324 323 323 323 323 323 323 322 323 324 323 321 320 321 322 322 322 322 320 319 317 317 319 321 322 323 323 323 324 324 324 325 326 327 327 327 326 327 327 326 326 325 324 323 321 320 320 320 319 319 319 317 315 315 315 316
323 323 324 325 325 325 325 324 323 322 322 322 323 322 322 323 323 320 318 318 320 322 322 321 320 317 315 315 316 317 318 318 319 320 320 321 322 323 323 324 326 327 326 326 327 326 326 326 325 324 324 322 321 320 320 319 319 318 316 314 312 311 312
325 324 325 325 326 326 326 325 323 322 322 322 321 321 322 323 320 317 317 318 320 320 320 320 320 317 314 315 316 315 316 317 317 319 319 319 321 323 324 324 325 326 326 325 326 326 325 325 324 324 324 323 321 320 320 320 319 318 315 314 313 311 309
328 326 326 325 325 325 326 326 324 322 321 321 321 322 322 321 318 317 318 318 318 319 318 317 319 318 315 314 315 315 315 316 317 317 317 317 319 322 324 324 325 325 325 325 325 325 324 323 321 321 321 320 320 320 320 319 319 319 316 314 313 311 309
328 327 325 324 323 323 326 325 323 320 319 320 321 322 321 319 318 318 317 317 317 317 315 314 316 319 317 313 314 314 314 314 315 316 315 316 318 321 323 324 325 325 325 325 324 324 324 321 319 319 316 314 315 317 319 317 317 318 316 315 313 310 309
326 325 324 323 323 323 324 323 321 319 318 319 320 321 320 318 319 319 317 317 316 314 313 314 316 319 317 314 314 314 313 313 314 314 314 315 316 319 322 324 325 325 324 324 324 324 323 320 318 317 315 314 312 313 317 316 315 317 316 315 313 310 307
325 324 323 323 323 323 322 321 319 318 318 318 319 320 319 318 319 318 317 317 315 312 312 315 316 317 316 315 314 313 313 312 313 313 313 313 315 317 320 323 323 324 324 324 324 324 323 320 318 315 315 318 315 312 315 316 315 316 315 313 313 310 307
324 324 323 323 323 322 321 319 319 319 318 318 318 318 318 318 318 318 318 316 314 312 312 314 315 315 315 314 313 313 313 313 313 313 312 313 313 314 317 320 322 322 323 323 323 324 323 320 320 318 317 319 319 316 315 315 315 316 315 314 313 311 307
324 324 323 323 323 322 320 319 319 319 318 318 317 316 317 318 318 317 317 315 313 313 313 314 314 315 314 314 313 314 314 314 313 313 313 313 313 313 314 317 320 321 322 322 322 322 322 321 321 322 321 320 321 319 316 314 314 315 315 314 314 312 309
324 324 323 323 323 322 320 319 319 319 318 317 316 315 315 317 317 316 316 314 314 314 313 313 313 314 314 314 314 314 314 314 313 313 313 313 313 313 313 313 315 317 319 322 322 322 322 321 321 322 322 321 321 321 319 316 314 315 315 314 313 313 312
324 324 323 323 323 322 320 320 319 318 317 316 316 315 315 315 316 316 315 314 314 313 313 313 313 313 314 314 314 314 314 314 313 313 313 313 313 313 313 313 313 313 314 316 319 320 320 320 320 319 319 319 319 319 319 318 316 314 314 313 313 313 313
323 323 323 323 323 322 320 320 319 317 316 316 316 315 315 315 316 315 314 314 313 313 314 314 314 314 313 314 314 315 316 315 314 314 314 314 314 314 314 314 313 313 313 313 314 315 315 315 315 315 314 315 315 316 318 318 316 314 314 314 313 312 312
322 321 321 321 320 320 320 319 318 316 316 316 316 315 314 315 316 315 315 314 314 315 315 315 315 314 314 314 315 317 317 316 315 315 315 315 315 316 317 316 316 315 315 314 313 313 313 313 313 313 313 312 313 315 317 316 316 315 315 314 314 313 313
320 321 322 321 319 319 319 319 318 317 316 317 316 315 314 315 315 315 315 315 315 315 315 315 315 315 315 316 317 318 319 318 316 315 316 317 316 316 317 318 318 318 317 317 316 315 314 314 313 314 313 312 312 315 317 316 315 316 315 314 313 314 314
319 320 322 321 320 319 319 318 318 317 317 317 316 315 314 315 316 315 315 316 316 315 315 316 316 316 317 318 318 318 319 319 318 316 316 318 318 318 318 318 319 319 319 319 319 318 317 316 315 315 314 313 312 313 315 316 315 315 315 314 314 314 314
319 320 320 320 319 319 319 318 318 317 317 317 317 316 316 316 316 315 315 316 316 316 316 316 317 318 319 320 320 320 319 319 319 317 318 319 320 320 319 319 320 320 320 320 320 320 319 319 318 317 316 315 314 312 313 314 314 314 314 314 315 314 314
319 319 319 320 320 319 317 316 317 317 317 317 319 318 317 317 318 317 316 316 317 317 317 317 317 318 319 319 320 320 320 320 320 319 319 320 321 321 321 320 320 320 320 320 320 320 320 319 319 319 318 316 315 314 313 312 312 313 314 315 316 315 315
319 319 319 319 319 317 314 314 315 315 315 316 318 319 317 317 318 318 317 317 318 318 319 318 318 318 318 320 320 320 321 320 320 320 321 321 321 321 321 321 321 321 320 320 320 320 320 320 319 319 318 316 315 316 315 314 313 313 314 315 316 315 316
318 318 318 318 318 316 315 315 316 315 315 317 318 318 318 318 318 318 318 319 319 319 319 319 319 319 319 320 320 320 321 321 321 321 321 322 322 322 321 321 321 320 320 320 319 319 319 320 320 319 318 316 315 316 315 315 315 314 314 314 314 313 314
319 319 318 318 318 317 317 317 317 317 318 318 318 318 318 318 318 319 319 319 319 319 319 319 319 320 320 320 320 320 321 321 321 321 322 322 322 322 321 321 320 320 320 319 319 319 319 319 319 319 317 315 315 315 315 315 315 315 314 314 313 312 312
318 318 318 318 318 318 318 318 318 318 318 318 318 318 318 318 318 318 319 319 319 319 319 319 319 320 320 320 320 321 321 321 321 322 322 322 322 321 320 320 320 320 320 319 319 318 319 319 319 318 316 315 315 315 316 316 316 316 315 315 315 314 313
316 316 317 318 318 318 319 319 319 319 319 319 319 319 319 319 319 319 319 319 319 319 319 319 319 319 319 319 319 319 319 320 320 320 321 321 320 320 319 319 320 320 319 319 318 318 318 319 318 317 316 315 315 316 316 316 316 316 315 315 314 314 314
312 312 314 315 316 317 317 318 319 319 319 319 319 319 319 319 318 319 318 319 319 319 319 318 318 318 318 318 318 318 318 319 319 319 319 319 319 318 318 319 319 319 319 318 317 318 318 318 317 317 316 315 315 315 315 315 315 315 314 313 313 313 312
306 306 307 308 310 312 314 315 317 318 318 318 318 318 318 318 318 318 318 318 318 318 318 319 319 318 318 318 318 318 318 318 318 318 318 318 318 318 318 318 318 319 319 318 317 318 319 318 317 316 316 315 314 313 313 313 313 313 313 312 311 311 310
303 303 303 303 304 307 309 310 312 313 314 315 316 317 317 318 318 318 318 317 316 316 317 319 319 318 318 318 318 318 318 318 318 318 318 318 318 318 318 318 318 319 318 318 318 319 319 318 317 316 315 314 313 311 311 311 311 311 311 310 309 309 308
301 302 303 303 304 305 306 306 307 308 308 309 311 312 312 313 314 315 316 316 315 316 317 318 318 318 318 317 317 317 317 317 317 317 317 318 318 318 318 318 318 318 318 317 318 320 319 319 317 316 314 313 312 310 309 309 309 309 309 309 307 306 305
299 299 300 302 302 303 305 306 307 306 305 306 307 306 306 306 307 308 309 310 310 311 311 311 313 315 316 315 314 313 313 313 314 314 315 316 316 316 316 316 315 316 317 317 318 320 320 319 318 316 314 312 311 309 308 308 308 307 307 307 305 304 303
297 297 298 298 299 300 301 302 303 303 303 303 303 303 303 303 303 303 304 304 305 305 305 305 306 308 310 311 312 311 310 309 308 308 310 312 313 313 313 313 313 314 315 316 318 319 319 318 318 316 313 310 309 307 307 307 306 306 305 304 303 302 301
296 296 296 297 297 297 298 298 299 299 300 300 301 301 302 301 302 302 302 302 302 302 302 303 303 304 305 307 307 308 309 308 307 306 306 307 309 309 310 311 313 313 314 315 317 318 318 316 315 313 311 309 308 307 307 307 306 305 304 303 302 301 300
295 295 295 295 296 296 297 297 297 298 298 298 299 299 300 300 301 302 302 301 301 301 301 301 301 302 303 304 305 305 306 307 308 307 306 305 305 305 306 307 309 312 313 314 315 317 318 315 312 310 308 308 307 307 307 306 305 303 303 302 301 301 300
Wind_Speed
12 12 11 11 12 11 12 12 11 12 13 12 10 10 10 10 9 10 9 9 8 7 7 7 7 7 8 8 9 9 9 10 9 8 9 11 10 8 5 2 1 4 7 6 6 6 5 5 7 8 9 10 10 9 8 8 8 7 5 5 6 7 8
11 12 12 11 12 11 11 12 12 13 14 12 11 11 11 10 10 9 9 8 7 7 7 6 6 6 7 7 7 8 9 10 10 8 7 9 9 9 7 5 4 6 5 4 6 6 6 6 6 7 9 11 10 9 8 8 8 7 7 7 7 7 8
11 12 13 13 12 11 11 12 13 13 14 13 12 12 11 10 10 9 9 8 7 6 6 6 5 5 5 6 7 8 8 9 10 9 8 7 8 8 8 7 7 8 7 6 7 7 7 6 6 8 9 9 8 8 7 7 7 7 7 7 7 8 10
15 14 15 14 12 12 12 13 14 14 14 14 13 12 11 10 10 9 8 7 6 6 6 5 4 4 4 4 6 7 7 7 8 8 7 6 7 8 8 7 7 8 7 7 9 9 8 7 8 8 10 10 9 7 6 6 7 7 7 7 8 10 12
19 17 16 15 15 15 16 16 16 15 15 14 14 13 12 11 10 9 8 7 7 6 6 4 3 2 2 2 3 5 6 6 6 6 6 6 8 8 7 6 6 7 5 5 9 10 8 10 10 10 10 10 9 8 7 7 8 8 8 8 8 10 11
22 21 19 19 20 20 19 19 17 16 16 15 14 13 12 11 10 9 8 7 7 6 5 3 2 3 3 3 4 4 5 5 5 5 5 6 8 8 7 7 7 6 4 4 8 9 9 11 12 12 11 9 9 10 8 9 9 8 8 8 8 8 9
21 21 21 22 22 21 20 19 17 16 15 14 13 12 11 11 10 9 8 7 6 5 4 4 4 5 5 4 4 5 6 6 6 6 5 5 6 6 6 7 7 7 4 4 9 11 11 13 13 14 13 10 10 10 9 8 7 7 7 7 7 8 9
21 21 22 22 22 21 19 18 16 15 14 12 11 10 11 11 11 10 8 7 7 7 6 6 6 6 6 6 6 6 7 6 6 6 5 4 4 4 5 6 7 8 6 6 10 11 11 13 14 16 16 12 9 7 7 7 6 7 8 7 6 6 9
22 22 22 22 22 21 19 17 15 14 12 11 11 10 11 13 12 11 9 9 9 8 8 7 7 6 6 7 8 8 8 8 7 7 7 6 5 4 5 6 7 8 7 7 10 10 10 12 14 15 14 12 10 7 5 6 6 7 7 7 7 6 8
22 22 22 22 21 21 19 17 14 12 11 11 10 11 13 15 13 11 10 10 10 9 7 6 6 6 7 8 9 9 9 8 8 8 8 6 6 5 5 6 8 9 8 8 10 10 11 13 16 13 9 9 11 8 6 5 6 7 7 6 6 7 9
21 20 21 21 20 20 19 18 15 13 12 11 10 12 15 16 14 11 10 11 10 9 7 7 7 7 6 8 9 9 9 8 7 8 7 5 5 6 6 7 9 10 9 10 10 10 12 17 19 14 8 8 8 7 7 7 5 6 8 6 5 7 10
20 20 20 20 19 19 20 19 17 14 13 13 12 15 17 16 14 12 11 10 9 8 7 8 9 8 6 7 8 8 8 7 6 6 5 4 5 6 7 9 10 10 10 11 11 10 13 19 18 13 11 10 7 7 9 9 6 6 7 6 6 8 11
20 20 19 19 19 19 20 20 18 16 15 14 14 16 16 15 14 12 11 9 8 8 8 9 10 9 7 6 6 5 5 5 5 5 5 5 6 6 7 9 10 10 10 10 11 11 14 18 16 13 12 9 7 10 9 8 8 8 7 7 7 9 12
20 20 19 19 19 19 19 19 18 17 16 15 14 15 15 14 13 12 10 8 7 8 9 10 10 9 8 6 5 4 4 4 5 6 6 6 6 6 7 8 9 10 10 11 11 12 13 16 15 14 12 8 8 10 8 7 10 11 9 8 8 10 13
21 21 20 20 19 18 18 18 18 17 16 15 14 14 14 14 13 11 10 8 8 8 9 10 10 9 8 6 5 5 5 5 6 7 7 6 6 6 6 7 8 10 11 11 12 12 13 15 15 13 11 8 7 8 8 7 10 11 11 10 9 11 14
22 21 20 20 19 17 17 18 17 17 16 16 15 13 13 13 13 11 11 9 9 9 9 10 10 10 9 8 7 7 6 6 7 7 7 7 7 6 6 7 7 8 10 11 12 13 13 15 14 11 11 11 9 9 9 8 9 11 12 11 11 12 14
22 21 21 20 19 18 17 17 17 16 16 15 14 13 12 13 12 12 11 10 9 9 9 10 11 10 10 9 8 7 6 7 7 6 6 6 6 6 6 6 6 7 8 10 11 12 13 14 14 11 11 12 12 11 12 11 10 11 13 13 12 12 14
22 21 21 20 20 18 17 17 16 15 16 15 14 13 12 13 13 13 12 10 10 10 10 10 10 11 10 9 8 6 5 5 6 5 5 4 5 5 5 5 5 5 5 6 9 10 12 12 13 13 12 12 12 13 14 14 12 11 14 14 14 13 13
23 22 22 21 21 19 17 17 16 15 15 14 13 12 12 13 13 13 11 10 10 11 10 10 10 10 10 8 7 5 3 3 4 4 4 3 3 4 4 4 5 5 4 4 5 6 7 8 8 9 9 8 9 10 13 15 12 11 12 13 14 15 14
21 21 20 19 19 19 18 17 15 14 13 12 12 12 12 13 13 13 12 11 11 11 10 10 9 9 9 8 6 4 2 2 3 3 3 2 2 3 4 4 4 4 4 3 3 3 4 5 5 5 5 5 5 8 11 13 11 10 10 11 13 13 13
16 18 19 19 17 16 16 16 15 13 12 11 10 10 11 13 12 12 12 11 11 11 11 10 10 9 9 8 6 4 3 3 4 5 4 3 4 4 4 4 4 4 4 4 4 4 4 4 4 5 5 5 5 8 11 13 12 11 11 12 13 13 13
13 16 18 17 16 14 13 12 12 11 11 11 9 9 11 11 11 11 12 11 11 11 11 10 10 9 7 6 5 4 4 4 5 6 6 5 5 5 5 5 5 5 5 4 5 5 5 5 5 6 7 7 7 9 12 14 13 12 12 13 13 13 13
14 16 16 14 13 12 11 8 7 8 9 10 8 8 10 11 11 12 12 11 10 10 9 9 8 7 6 5 5 5 5 6 6 7 8 7 7 7 7 7 7 7 7 7 7 8 7 8 7 7 8 9 10 12 14 15 14 13 13 13 13 14 14
16 16 16 16 15 14 13 10 9 10 9 9 8 7 10 12 11 12 11 10 9 8 8 8 8 7 6 6 6 6 7 8 8 9 10 10 9 9 9 9 9 9 9 10 10 11 11 11 10 10 10 11 11 13 15 17 17 15 14 12 12 14 14
13 14 14 15 17 19 19 17 16 14 11 9 8 9 11 12 11 11 10 9 9 8 8 8 9 9 8 7 7 8 9 10 11 11 12 12 12 12 11 11 11 12 12 12 12 13 14 14 14 13 13 13 14 15 15 16 17 18 17 14 13 14 13
10 9 9 11 13 16 17 17 16 13 10 9 9 9 11 11 10 10 10 10 10 9 9 9 10 10 10 9 10 11 12 13 13 14 14 14 13 13 13 13 14 14 14 14 14 15 16 16 16 16 15 14 15 16 15 15 15 16 17 16 16 17 16
10 8 8 9 9 9 10 11 11 10 8 7 8 9 10 9 9 9 10 10 9 9 9 10 11 11 11 11 12 13 14 15 15 15 15 15 15 15 15 15 15 15 15 15 16 17 17 17 18 18 16 16 16 16 14 14 12 12 14 14 15 17 18
12 12 11 11 10 9 7 7 7 6 5 5 6 7 7 6 7 7 7 7 7 8 9 10 11 11 11 12 12 13 14 15 15 15 16 16 16 16 16 15 15 15 15 16 17 18 17 17 18 19 18 17 16 16 14 13 12 12 13 13 13 15 17
15 14 13 13 12 10 8 6 6 4 3 3 3 2 2 3 4 4 4 4 5 6 8 9 10 10 11 11 11 11 12 14 14 15 16 17 17 17 16 16 15 15 16 17 19 17 15 16 18 19 19 17 16 15 14 13 12 12 12 13 12 12 14
20 18 15 15 14 11 8 6 6 5 5 5 4 4 2 1 1 1 1 1 1 3 5 6 7 8 9 9 10 11 12 12 13 14 14 15 16 16 17 16 16 16 17 18 18 16 14 16 18 19 19 18 16 15 13 12 12 12 11 12 11 12 13
26 25 23 21 19 17 13 10 8 7 6 6 7 7 6 5 5 4 3 2 1 1 3 4 5 7 8 8 8 10 11 11 12 13 13 14 15 16 17 17 17 16 16 17 16 14 14 16 18 20 20 19 17 15 14 14 13 13 13 12 13 14 15
25 26 26 25 24 22 19 17 15 12 12 11 10 9 8 7 7 6 4 2 1 1 3 4 5 6 7 7 7 8 10 11 12 12 14 14 15 16 17 17 17 16 16 15 14 13 14 17 19 21 20 19 17 16 15 15 16 16 16 17 16 16 16
21 21 21 21 20 20 19 18 16 15 16 15 13 12 11 10 10 9 8 6 3 2 3 4 4 5 6 6 7 7 9 9 9 11 13 15 15 16 16 17 17 16 15 15 14 13 15 18 20 21 20 18 18 17 18 18 18 18 19 20 19 18 17
20 19 18 16 16 15 14 14 12 12 14 14 13 13 14 14 15 13 11 10 9 8 8 8 7 6 6 6 7 7 8 7 7 7 10 12 12 12 13 13 15 15 15 17 16 15 16 18 19 20 20 20 19 18 19 20 20 20 20 20 19 18 17
18 18 17 15 15 15 13 12 10 10 10 10 10 11 12 14 15 14 13 12 11 11 10 10 10 9 9 9 8 8 8 8 8 8 9 10 10 11 12 13 14 15 15 17 18 17 17 19 20 21 21 22 20 19 20 22 22 21 20 20 19 17 15
15 15 15 15 15 15 14 12 12 11 11 10 10 11 12 12 13 13 14 14 14 13 12 11 10 10 10 10 11 11 9 9 8 9 10 11 11 13 14 15 15 15 14 16 18 19 19 20 22 23 23 23 21 20 22 24 24 23 21 19 18 16 14
13 13 14 14 14 14 14 13 13 12 12 12 12 12 13 13 12 12 12 13 14 14 14 14 13 12 11 10 11 11 10 9 9 9 9 10 11 13 15 16 17 17 16 16 17 19 20 22 24 25 24 24 23 23 25 26 25 24 21 18 16 14 13
Wind_Direction
170 168 167 168 167 166 165 163 163 165 167 170 171 171 172 173 173 173 174 174 176 177 176 179 180 184 195 206 214 212 213 216 211 208 197 185 187 193 193 200 103 136 153 160 160 149 141 132 115 104 99 98 95 97 104 103 103 107 94 86 105 117 116
165 161 158 159 160 160 160 159 159 161 163 164 164 167 168 167 165 164 164 165 167 172 173 177 177 181 197 213 225 225 222 218 214 215 207 198 199 193 186 183 148 143 148 150 154 145 141 144 136 125 117 106 91 83 92 100 97 99 96 93 101 110 110
157 156 153 154 157 156 155 155 157 159 160 161 162 164 163 160 161 161 160 158 154 160 167 172 182 194 206 220 235 239 230 220 217 217 215 213 211 197 188 183 164 158 158 158 163 157 148 146 143 142 133 120 101 78 73 87 94 96 96 100 102 106 108
159 155 154 155 157 155 154 156 159 161 162 164 163 162 161 159 159 159 159 157 153 156 162 167 186 206 216 224 233 234 227 220 218 216 217 218 206 193 191 193 186 179 175 175 174 167 155 146 146 141 128 121 111 90 74 80 90 90 87 91 98 106 111
167 162 158 159 160 159 161 162 164 166 167 167 164 161 162 161 158 157 159 163 166 169 173 180 189 186 189 188 192 203 205 202 201 198 203 204 193 189 194 203 206 199 193 180 171 165 155 148 146 136 128 128 116 101 98 93 92 89 88 91 96 103 110
171 170 165 163 165 166 168 169 169 172 170 167 164 162 160 160 160 158 161 169 177 182 182 180 157 132 126 123 138 153 161 167 167 168 178 184 185 192 199 202 204 196 185 168 165 157 145 146 145 137 135 135 123 117 118 112 106 96 90 94 100 104 107
173 174 170 167 168 170 173 174 174 175 173 169 167 165 161 162 164 161 164 172 175 174 163 143 122 113 111 114 129 139 143 145 145 148 156 165 178 189 194 198 196 189 184 166 160 154 150 152 150 143 135 127 124 125 125 125 123 112 101 97 100 109 114
176 175 173 172 171 174 178 179 179 177 177 175 173 173 169 167 167 163 161 158 153 147 133 124 116 110 111 114 123 131 135 136 133 134 136 144 163 174 182 192 190 190 196 175 161 159 160 159 156 151 143 134 131 129 125 128 124 114 115 112 103 111 125
179 178 177 178 178 180 182 183 181 179 178 177 179 180 173 168 167 161 151 144 143 140 131 125 117 115 121 120 118 119 119 119 119 115 110 111 118 131 157 176 181 189 194 177 165 165 167 163 158 157 151 142 140 137 132 135 127 123 127 127 119 122 134
184 183 183 183 185 187 187 186 183 180 179 179 183 180 170 168 166 157 149 146 146 145 143 143 132 124 128 125 117 115 112 110 108 102 91 86 91 105 129 151 171 184 186 175 170 175 178 169 160 158 152 140 139 140 145 144 138 142 148 142 132 137 145
190 190 188 186 187 189 189 187 184 182 181 180 182 175 167 168 166 159 154 149 150 151 150 156 153 141 135 130 120 112 108 105 102 94 77 66 85 100 114 133 153 168 170 169 172 178 180 172 164 159 148 139 137 139 147 147 142 150 155 154 145 147 153
193 192 189 186 185 184 185 185 183 182 178 176 178 175 171 171 169 166 160 150 146 146 142 147 154 152 146 138 125 112 107 104 102 97 81 73 94 102 110 124 137 147 151 160 168 171 173 171 167 157 145 142 141 141 146 147 148 156 162 160 151 154 158
194 191 187 186 183 182 183 183 182 180 175 172 176 177 177 178 175 170 163 151 140 135 132 136 145 150 152 143 126 112 108 112 113 108 99 92 96 98 106 117 127 135 140 150 159 163 169 173 172 159 143 132 136 148 148 145 146 152 164 159 147 155 162
194 191 188 188 186 184 184 183 181 179 175 171 173 176 181 183 179 173 164 153 140 132 132 135 139 144 148 142 126 115 116 123 125 119 109 98 94 95 103 114 122 126 131 141 149 157 169 177 180 173 161 141 139 155 156 144 143 148 161 163 150 158 166
194 192 191 192 191 188 186 184 182 180 177 174 172 175 181 181 178 173 164 156 149 141 138 140 141 140 140 137 126 117 114 120 125 123 115 103 94 92 104 122 129 129 133 140 149 160 172 181 188 190 192 187 165 165 167 154 150 152 159 165 162 165 169
195 194 194 195 194 192 189 186 184 182 180 178 175 177 182 179 176 172 165 160 159 155 146 144 147 146 141 137 134 126 118 121 125 123 120 112 102 93 100 120 134 141 148 155 164 174 181 189 196 201 210 215 203 187 182 171 162 160 159 163 170 173 175
195 194 196 197 197 196 193 188 185 185 184 181 177 179 182 179 175 171 167 165 166 164 154 148 152 156 152 145 143 138 131 132 131 125 122 116 109 104 103 112 125 142 162 174 183 192 198 205 211 215 223 231 227 213 199 190 180 171 165 167 174 179 181
195 194 195 196 198 198 195 191 187 186 186 184 181 182 181 178 176 173 171 169 167 164 156 150 154 159 161 158 152 145 138 143 143 135 128 121 115 112 111 119 126 130 151 181 196 206 213 220 226 230 235 238 237 229 210 199 192 181 174 172 175 181 183
193 192 192 194 197 198 197 194 189 186 187 186 186 186 182 178 177 176 174 168 163 160 156 153 153 156 160 161 158 155 152 160 162 150 141 134 126 117 113 124 137 135 137 169 197 209 218 225 232 239 242 237 233 226 208 199 193 186 182 176 174 180 185
183 181 185 191 196 196 194 194 189 187 189 190 191 190 184 179 176 176 174 168 164 163 162 162 159 155 156 157 159 166 181 203 203 190 177 171 166 147 134 133 142 149 152 166 185 195 210 220 227 239 247 243 228 207 194 192 191 187 186 181 178 180 185
173 179 188 192 196 194 193 194 191 188 191 193 194 193 189 185 181 179 177 174 174 174 173 174 170 165 163 165 173 185 203 224 222 217 216 214 205 192 176 171 170 175 179 183 192 196 198 204 209 215 222 228 219 196 185 187 192 192 190 187 185 184 184
170 187 191 187 188 188 185 188 191 192 195 195 193 193 196 196 192 189 187 185 186 185 183 182 180 178 179 183 195 211 229 238 232 227 226 222 221 220 212 207 203 205 210 213 218 220 217 216 213 210 211 212 209 199 190 190 192 192 189 186 185 185 186
168 186 189 184 186 182 167 166 192 208 206 201 199 202 208 210 206 204 201 198 199 200 198 196 195 197 201 207 222 236 241 240 235 231 230 231 235 235 232 232 229 226 230 234 236 237 236 235 230 225 222 215 210 207 200 196 194 191 190 190 186 187 190
155 169 181 188 190 180 165 174 215 234 227 214 210 218 224 221 215 214 213 212 218 222 223 224 223 225 229 234 246 255 253 246 239 235 236 237 240 243 243 244 245 243 243 244 246 247 246 245 242 237 234 227 220 216 210 205 201 196 194 193 189 191 194
142 153 167 178 181 178 177 190 216 237 245 239 231 229 229 224 219 222 223 223 230 237 240 241 238 238 240 243 251 261 264 258 249 245 244 242 244 248 250 251 251 252 251 250 249 250 249 248 246 242 237 229 225 222 217 215 212 206 203 197 192 195 196
136 150 161 169 177 186 193 202 219 237 252 255 245 229 221 218 218 226 232 234 240 245 247 248 246 248 250 251 253 257 260 259 255 252 251 250 251 254 256 257 257 258 259 257 253 251 250 248 245 241 236 228 222 219 217 218 218 215 214 208 201 200 201
119 128 139 151 165 185 202 214 225 236 245 244 235 221 214 213 218 228 237 242 248 253 256 258 259 262 263 262 258 256 255 255 253 253 255 257 259 261 262 262 261 262 263 261 259 256 251 246 241 235 228 220 216 213 211 211 210 211 212 211 209 210 207
108 108 116 128 138 150 168 191 208 217 219 217 217 217 217 224 232 238 244 247 253 260 262 263 266 268 269 268 264 261 260 260 259 259 260 263 265 268 269 268 266 264 265 267 267 262 252 243 236 228 221 215 211 209 207 209 210 211 210 208 208 211 206
99 98 103 110 114 118 124 132 142 147 150 160 168 184 203 219 229 235 244 253 259 266 268 271 273 273 273 273 273 273 273 272 271 269 268 269 271 273 274 272 270 269 271 273 271 264 250 237 228 221 217 212 209 208 208 209 211 212 210 206 204 205 202
86 88 90 93 95 98 99 102 110 113 110 108 101 93 96 110 124 89 41 339 300 305 306 298 286 280 282 283 282 280 280 280 281 280 277 275 276 277 276 275 275 275 274 275 272 262 245 230 222 219 216 210 206 206 204 201 200 199 201 204 201 193 188
79 80 78 78 79 82 81 77 80 90 94 89 80 73 67 57 51 54 62 78 87 7 336 314 291 284 286 287 286 285 284 284 285 284 282 281 280 282 282 282 280 277 272 271 269 257 238 227 221 219 215 208 202 199 195 191 187 183 182 185 181 173 170
75 76 76 75 74 75 75 73 73 78 84 85 80 72 65 60 57 58 63 84 151 288 311 302 294 293 292 292 292 291 290 289 288 286 286 287 286 287 288 288 286 279 271 266 260 246 234 228 224 222 217 207 199 194 191 188 183 176 171 169 167 164 162
69 70 73 76 76 77 78 75 71 69 72 77 80 79 78 77 76 73 71 76 75 29 5 344 326 319 314 314 313 305 300 296 292 290 291 293 292 290 290 291 290 283 271 261 252 241 235 231 229 228 220 208 203 200 194 187 182 177 172 168 166 165 163
69 68 70 73 75 77 78 77 73 67 65 68 72 76 77 78 79 78 75 74 68 56 48 40 27 10 354 342 335 329 326 319 309 302 299 298 297 295 295 297 296 289 273 260 252 244 237 234 233 232 223 216 216 211 198 189 183 179 175 170 167 164 161
69 71 72 73 74 74 75 79 81 76 71 70 70 70 70 70 72 71 66 63 60 55 51 46 40 34 26 15 4 355 348 339 331 324 317 310 307 305 302 299 295 290 276 261 254 248 242 237 235 231 225 222 221 212 199 191 184 177 173 170 165 160 155
66 69 70 73 75 75 75 76 75 73 72 70 65 61 59 59 63 64 60 54 48 43 37 33 29 25 22 21 18 12 6 358 347 334 322 314 309 307 306 302 297 293 285 270 258 251 246 238 232 228 225 221 216 207 200 193 183 176 172 168 162 155 150
62 64 66 70 72 72 71 71 68 66 64 61 56 52 49 49 52 55 54 49 43 38 32 25 21 16 9 3 1 359 359 358 355 346 332 321 315 310 305 300 295 293 291 284 269 256 248 238 228 223 222 220 213 204 197 189 181 176 172 166 159 152 148